Аэропорт
Хабаровск (UHHH)

 UHHH / KHV
ЗЦ Хабаровск
Хабаровск (UHHH)
Хабаровск (UHHH)
 48.52800, 135.18800  / 244 ft

 UHHH 250430Z 36007G12MPS 9999 SCT045CB 09/02 Q1007 R05R/090060 NOSIG RMK QFE749/0999
 TAF UHHH 250148Z 2503/2609 34004MPS 9999 SCT020CB TEMPO 2503/2509 02010MPS 3100 -SHRA SCT011 BKN020CB FM260000 25003MPS CAVOK
UHHH_j_0220
показать схемы
Название сценария Тип сценария Flight Simulator 9 Flight Simulator X Prepar3D v2 Prepar3D v3 Prepar3D v4 Prepar3D v5 xPlane
Khabarovsk UHHH (P3Dv4.4+)_0420 бесплатный
UHHH Khabarovsk NOVY 2019 v1.1 автор: vprLIM, Евгений Шадрин бесплатный
uhhh-scenery-fs9-1104 бесплатный
uhhh-scenery-fs9-1406 бесплатный

 

Международный аэропорт Хабаровск (Новый) имени Г. И. Невельского (IATA: KHV, ICAO: UHHH) — аэропорт города Хабаровска, столицы Хабаровского края, является аэропортом федерального значения, аэропортом класса «А»

05L/23R ИВПП-1 класса Б длиной 3500 м, шириной 45 м. Несущая способность ИВПП: PCN 56/R/C/X/T (смешанное). (Закрыта на реконструкцию)

05R/23L ИВПП-2 класса А длиной 4000 м, шириной 60 м. Несущая способность ИВПП: PCN 68/R/А/X/T (смешанное).

Покрытие ИВПП-1: цементобетон, покрытие ИВПП-2: высокоплотный асфальтобетон

Пропускная способность двух взлетно-посадочных полос составляет 24 взлётов/посадок в час. Имеется 8 рулёжных дорожек. На перроне аэродромного комплекса расположено 55 мест стоянок для различных типов воздушных судов.



2020 © VATRUS division (Privacy Policy)